{"data":{"norad_id":58558,"intl_designator":"2023-194B","name":"YAOGAN-39 05B","alt_names":[],"object_type":"PAYLOAD","status":"ACTIVE","operator":null,"country":"PRC","launch_date":"2023-12-10","launch_site_code":"XICLF","launch_vehicle":null,"mission":null,"orbit_class":"UNKNOWN","rcs_meters":null,"size_class":null,"mass_kg":null,"dimensions":null,"purposes":[],"wikipedia_slug":null,"has_3d_model":false,"image_url":null,"decayed_at":null,"tle_current":{"epoch":"2026-09-21T23:32:18.471840Z","epoch_age_seconds":116988,"freshness":"FRESH","line1":"1 58558U 23194B   26264.98076935  .00003288  00000+0  16559-3 0  9996","line2":"2 58558  34.9911 197.9288 0010135  61.7926 298.3809 15.16677488154805","mean_motion":15.16677488,"eccentricity":0.0010135,"inclination_deg":34.9911,"raan_deg":197.9288,"arg_perigee_deg":61.7926,"mean_anomaly_deg":298.3809,"bstar":0.00016559,"rev_number":15480,"period_min":94.944377522138,"perigee_km":508.9034475594,"apogee_km":522.87764139206,"semimajor_km":6894.0275444757,"source":"CELESTRAK","updated_at":"2026-09-22T09:00:26.734164Z"}}}